FW0502 Weather Reports


time (UTC)temp
C
wind
direction
speed
KPH
gust
KPH
rain 1hr
cm
rain 24hr
cm
rain mn
cm
humidity
%
barometer
mb
20260503033038 8 0.0 3.2 0.00 0.00 0.00 62 1012.1
20260503031547 8 0.0 3.2 0.00 0.00 0.00 61 1011.9
20260503030037 9 0.0 0.0 0.00 0.00 0.00 58 1011.9
20260503024537 11 0.0 0.0 0.00 0.00 0.00 51 1011.9
20260503023038 13 0.0 0.0 0.00 0.00 0.00 46 1011.8
20260503021538 16 0.0 0.0 0.00 0.00 0.00 40 1011.9
20260503020035 18 0.0 1.6 0.00 0.00 0.00 38 1011.9
20260503014535 18 3.2 6.4 0.00 0.00 0.00 34 1012.0
20260503013036 19 3.2 8.0 0.00 0.00 0.00 35 1012.1
20260503011531 20 4.8 9.7 0.00 0.00 0.00 33 1012.2
20260503010029 20 4.8 11.3 0.00 0.00 0.00 32 1012.3
20260503004528 20 4.8 9.7 0.00 0.00 0.00 33 1012.5
20260503003026 20 3.2 9.7 0.00 0.00 0.00 31 1012.6
20260503001524 20 6.4 11.3 0.00 0.00 0.00 33 1012.7
20260503000022 20 6.4 12.9 0.00 0.00 0.00 33 1012.8
20260502234521 20 8.0 12.9 0.00 0.00 0.00 34 1012.9
20260502233019 18 6.4 12.9 0.00 0.00 0.00 37 1013.0
20260502231520 19 8.0 14.5 0.00 0.00 0.00 35 1013.3
20260502230015 20 8.0 12.9 0.00 0.00 0.00 31 1013.4
20260502224513 20 4.8 14.5 0.00 0.00 0.00 33 1013.7
20260502223013 18 1.6 9.7 0.00 0.00 0.00 31 1013.7
20260502221509 20 1.6 4.8 0.00 0.00 0.00 30 1013.9
20260502220007 18 6.4 12.9 0.00 0.00 0.00 30 1014.3
20260502214504 18 4.8 16.1 0.00 0.00 0.00 32 1014.4
20260502213003 20 4.8 16.1 0.00 0.00 0.00 33 1014.5
20260502211602 18 0.0 14.5 0.00 0.00 0.00 35 1014.6
20260502210059 19 6.4 14.5 0.00 0.00 0.00 34 1014.8
20260502204556 18 6.4 14.5 0.00 0.00 0.00 34 1015.0
20260502203054 17 6.4 16.1 0.00 0.00 0.00 37 1015.3
20260502201554 17 3.2 9.7 0.00 0.00 0.00 36 1015.4
20260502200052 18 8.0 17.7 0.00 0.00 0.00 37 1015.7
20260502194553 17 1.6 8.0 0.00 0.00 0.00 38 1016.0
20260502193059 18 1.6 11.3 0.00 0.00 0.00 38 1016.3
20260502191549 17 4.8 9.7 0.00 0.00 0.00 37 1016.6
20260502190041 17 4.8 9.7 0.00 0.00 0.00 40 1016.9
20260502184542 16 1.6 6.4 0.00 0.00 0.00 39 1017.1
20260502183039 16 4.8 11.3 0.00 0.00 0.00 39 1017.1
20260502181533 15 0.0 4.8 0.00 0.00 0.00 44 1017.3
20260502163033 12 1.6 6.4 0.00 0.00 0.00 55 1018.3
20260502161518 12 3.2 8.0 0.00 0.00 0.00 54 1018.3
20260502151509 11 1.6 11.3 0.00 0.00 0.00 55 1018.6
20260502130126 7 1.6 4.8 0.00 0.00 0.00 76 1018.2
20260502123125 6 8.0 11.3 0.00 0.00 0.00 77 1017.8
20260502121559 7 8.0 12.9 0.00 0.00 0.00 74 1017.8
20260502120122 7 8.0 11.3 0.00 0.00 0.00 71 1017.7
20260502114557 8 8.0 11.3 0.00 0.00 0.00 69 1017.8
20260502113054 8 8.0 11.3 0.00 0.00 0.00 69 1017.8
20260502111554 8 8.0 11.3 0.00 0.00 0.00 69 1017.8
20260502110052 7 6.4 11.3 0.00 0.00 0.00 70 1017.7
20260502104550 7 8.0 11.3 0.00 0.00 0.00 70 1017.8
20260502103050 7 6.4 11.3 0.00 0.00 0.00 70 1017.7
20260502101555 8 8.0 11.3 0.00 0.00 0.00 70 1017.8
20260502071529 9 4.8 9.7 0.00 0.00 0.00 64 1017.1
20260502070025 9 8.0 12.9 0.00 0.00 0.00 63 1017.0
20260502064519 10 11.3 17.7 0.00 0.00 0.00 60 1016.7
20260502063016 10 12.9 19.3 0.00 0.00 0.00 59 1016.4
20260502061514 10 16.1 22.5 0.00 0.00 0.00 59 1016.2
20260502060010 10 16.1 20.9 0.00 0.00 0.00 59 1016.3
20260502054520 10 17.7 24.1 0.00 0.00 0.00 59 1016.1
20260502053008 10 17.7 27.4 0.00 0.00 0.00 56 1016.0
20260502051508 11 20.9 32.2 0.00 0.00 0.00 54 1015.8
20260502050025 12 25.7 37.0 0.00 0.00 0.00 50 1015.5
20260502044505 12 22.5 33.8 0.00 0.00 0.00 49 1015.4
20260502043005 12 17.7 25.7 0.00 0.00 0.00 50 1015.2
20260502041503 13 17.7 25.7 0.00 0.00 0.00 48 1014.9
20260502040002 13 16.1 22.5 0.00 0.00 0.00 48 1014.5
20260502034505 13 16.1 30.6 0.00 0.00 0.00 46 1014.2